カタログに戻る

ONEWEB-0019

運用中通信PO
NORAD 45449·PAYLOAD·🇬🇧 United Kingdom

打ち上げ Mar 21, 2020 から Baikonur Cosmodrome

Loading…

次のパス (今後24時間)

TLE

最新Source: CelesTrak SupGP

元期: Sep 14, 2026, 18:50 UTC

1 45449C 20020AB  26257.78486528  .00000525  00000+0  14838-2 0  2574
2 45449  87.8972   3.2437 0001690  96.3559 262.7288 13.11415577    12

AllMySatでONEWEB-0019をリアルタイム追跡

Download on the App Store